Weather History for San Jose, Costa Rica

Change the Weather History Date:

Wednesday, January 9, 2013

  Actual Average Record
Temperature  
Mean Temperature 77 °F -  
Max Temperature 87 °F 80 °F 87 °F (2013)
Min Temperature 67 °F 63 °F 59 °F (1998)
Cooling Degree Days 12    
Growing Degree Days 27 (Base 50)    
Moisture  
Dew Point 57 °F    
Average Humidity 54    
Maximum Humidity 73    
Minimum Humidity 25    
Precipitation  
Precipitation 0.00 in 0.01 in - ()
Sea Level Pressure  
Sea Level Pressure 29.93 in    
Wind  
Wind Speed 12 mph ()    
Max Wind Speed 20 mph    
Max Gust Speed 26 mph    
Visibility 8.9 miles    
Events      
Averages and records for this station are not official NWS values.
T = Trace of Precipitation, MM = Missing Value Source: Averaged Metar Reports

Daily Weather History Graph

Daily Weather History Graph

Search for Another Location

Airport:

Trip Planner

Search our weather history database for the weather conditions in past years. The results will help you decide how hot, cold, wet, or windy it might be!

Date:

Astronomy

Jan. 09, 2013 Rise Set
Actual Time 5:56 AM CST 5:31 PM CST
Civil Twilight 5:34 AM CST 5:54 PM CST
Nautical Twilight 5:08 AM CST 6:20 PM CST
Astronomical Twilight 4:42 AM CST 6:46 PM CST
Moon 3:34 AM CST (1/9) 3:32 PM CST (1/9)
Length of Visible Light 12h 20m
Length of Day
11h 34m
Waning Crescent, 6% of the Moon is Illuminated
Jan 9
Waning Crescent
Jan 11
New
Jan 18
First Quarter
Jan 26
Full
Feb 3
Last Quarter

Hourly Weather History & Observations

Time (CST) Temp. Heat Index Dew Point Humidity Pressure Visibility Wind Dir Wind Speed Gust Speed Precip Events Conditions
12:00 AM 70 °F - 59 °F 60% 29.81 in 12 mi East 15.0 mph - -   Scattered Clouds
12:00 AM 69.8 °F - 59.0 °F 68% 29.98 in 6.2 mi East 15.0 mph - N/A   Partly Cloudy
1:00 AM 69.8 °F - 59.0 °F 68% 29.97 in 6.2 mi East 16.1 mph - N/A   Partly Cloudy
2:00 AM 68.0 °F - 57.2 °F 68% 29.94 in - ESE 17.3 mph - N/A   Clear
3:00 AM 68 °F - 58 °F 63% 29.78 in 12 mi ESE 15.0 mph - -  
3:00 AM 68.0 °F - 59.0 °F 73% 29.94 in - ESE 15.0 mph - N/A   Clear
4:00 AM 68.0 °F - 57.2 °F 68% 29.95 in - ESE 15.0 mph - N/A   Clear
5:00 AM 68.0 °F - 57.2 °F 68% 29.96 in - East 10.4 mph 21.9 mph N/A   Clear
6:00 AM 68 °F - 56 °F 58% 29.83 in 12 mi ESE 19.6 mph - -  
6:00 AM 68.0 °F - 57.2 °F 68% 29.98 in - ESE 19.6 mph - N/A   Clear
7:00 AM 71.6 °F - 57.2 °F 60% 30.00 in - ESE 11.5 mph - N/A   Clear
9:00 AM 77.0 °F - 53.6 °F 44% 30.01 in - ESE 12.7 mph 24.2 mph N/A   Clear
10:00 AM 80.6 °F 80.3 °F 53.6 °F 39% 30.01 in - East 13.8 mph - N/A   Clear
11:00 AM 82.4 °F 81.4 °F 53.6 °F 37% 29.97 in - ENE 11.5 mph - N/A   Clear
12:00 PM 83 °F - 53 °F 25% 29.80 in 12 mi ENE 11.5 mph - -   Scattered Clouds
12:00 PM 84.2 °F 82.8 °F 53.6 °F 35% 29.96 in 6.2 mi ENE 11.5 mph 23.0 mph N/A   Partly Cloudy
1:00 PM 86.0 °F 84.2 °F 53.6 °F 33% 29.94 in 6.2 mi ENE 15.0 mph - N/A   Partly Cloudy
2:00 PM 86.0 °F 84.2 °F 53.6 °F 33% 29.92 in 6.2 mi East 13.8 mph - N/A   Partly Cloudy
3:00 PM 85 °F - 55 °F 26% 29.74 in 12 mi East 9.2 mph - -   Partly Cloudy
3:00 PM 86.0 °F 84.5 °F 55.4 °F 35% 29.91 in 6.2 mi East 9.2 mph - N/A   Scattered Clouds
4:00 PM 82.4 °F 82.0 °F 57.2 °F 42% 29.91 in 6.2 mi NE 17.3 mph 26.5 mph N/A   Partly Cloudy
5:00 PM 78.8 °F - 59.0 °F 51% 29.93 in - ENE 11.5 mph - N/A   Clear
6:00 PM 75 °F - 59 °F 49% 29.79 in 12 mi ENE 12.7 mph - -  
6:00 PM 75.2 °F - 59.0 °F 57% 29.94 in - ENE 12.7 mph - N/A   Clear
7:00 PM 73.4 °F - 60.8 °F 65% 29.96 in - East 9.2 mph - N/A   Clear
8:00 PM 71.6 °F - 60.8 °F 69% 29.98 in - East 12.7 mph 24.2 mph N/A   Clear
9:00 PM 71 °F - 61 °F 62% 29.86 in 12 mi East 9.2 mph - -   Scattered Clouds
9:00 PM 71.6 °F - 60.8 °F 69% 30.02 in 6.2 mi East 9.2 mph - N/A   Partly Cloudy
10:00 PM 71.6 °F - 59.0 °F 64% 30.02 in - ENE 9.2 mph - N/A   Clear
11:00 PM 71.6 °F - 60.8 °F 69% 30.01 in - East 9.2 mph - N/A   Clear